Location: Newark
(30.0333°N, 31.2167°E)
Time: 19:37:21
(UTC+00:00)

Tiros 1 - Pass Details

Date: 30 January 2020
Orbit: 631 x 664 km, 48.4° (Epoch: 23 February)

Event Time Altitude Azimuth Distance (km) Brightness Sun altitude
Rises 13:13:34 0° 324° (NW) 2,957 10.5 24.7°
Reaches altitude 10° 13:17:02 10° 350° (N) 2,054 9.5 24.1°
Maximum altitude 13:19:28 14° 21° (NNE) 1,813 9.1 23.7°
Drops below altitude 10° 13:21:55 10° 53° (NE) 2,062 9.2 23.3°
Sets 13:25:24 0° 79° (ENE) 2,978 10.1 22.7°
